Location: Unspecified
(22.6800°N, 112.2000°E)
Time: 15:41:49
(UTC+08:00)

S-56A Canister/Altair - Pass Details

Date: 28 July 2021
Orbit: 632 x 2500 km, 38.9° (Epoch: 24 September)

Event Time Altitude Azimuth Distance (km) Brightness Sun altitude
Rises 13:11:39 0° 205° (SSW) 4,813 11.7 81.2°
Reaches altitude 10° 13:14:48 10° 197° (SSW) 4,071 11.5 80.6°
Maximum altitude 13:25:12 40° 132° (SE) 2,949 11.0 78.3°
Drops below altitude 10° 13:38:19 10° 70° (ENE) 5,141 11.7 75.4°
Sets 13:42:47 0° 64° (ENE) 6,178 12.0 74.4°
